Flag for Bahrain Weather past 2 weeks in Riffa, Bahrain

Now
93 °F

Clear.


Feels Like: 126 °F
Forecast: 93 / 108 °F
Wind: 9 mph from East

Location: Bahrain International Airport

Current Time: Aug 1, 2015 at 4:35:24 AM

Latest Report: Aug 1, 2015 at 3:00 AM


Visibility: 4 mi

Pressure: 29.45 "Hg

Humidity: 80%

Dew point: 86 °F

Historic Weather in Riffa — Graph

°F

Riffa temperature yesterday

Maximum temperature yesterday: 109 °F (at 12:00 PM)
Minimum temperature yesterday: 93 °F (at 3:00 AM)
Average temperature yesterday: 100 °F

Past Weeks' High & Low Weather Summary

 TemperatureHumidityPressure
High113 °F (Jul 29, 12:00 PM)84% (Jul 22, 8:00 PM)29.56 "Hg (Jul 22, 8:00 PM)
Low90 °F (Jul 23, 6:00 AM)8% (Jul 19, 1:00 PM)29.33 "Hg (Jul 17, 5:00 PM)
Average98 °F47%29.44 "Hg
* Reported Jul 17 3:00 AM — Aug 1 3:00 AM, Riffa, Weather by CustomWeather, © 2015

Note: Actual official high and low records may vary slightly from our data, if they occured in-between our weather recording intervals... More about our weather records

Advertising

Riffa weather history for previous 24 hours

 ConditionsComfort  
Time TempWeatherWind HumidityBarometerVisibility
3:00 AM
Sat, Aug 1
93 °FClear.9 mph80%29.45 "Hg4 mi
2:00 AM93 °FClear.12 mph80%29.45 "Hg10 mi
1:00 AM97 °FClear.12 mph60%29.47 "Hg10 mi
12:00 AM99 °FClear.5 mph47%29.45 "Hg10 mi
11:00 PM
Fri, Jul 31
100 °FClear.3 mph35%29.45 "Hg10 mi
10:00 PM100 °FClear.6 mph37%29.47 "Hg10 mi
9:00 PM100 °FClear.5 mph42%29.45 "Hg10 mi
8:00 PM97 °FClear.7 mph71%29.45 "Hg10 mi
7:00 PM99 °FClear.10 mph53%29.45 "Hg10 mi
6:00 PM100 °FSunny.3 mph47%29.42 "Hg10 mi
5:00 PM102 °FSunny.6 mph42%29.45 "Hg10 mi
4:00 PM100 °FSunny.10 mph50%29.45 "Hg6 mi
3:00 PM102 °FSunny.12 mph57%29.45 "Hg6 mi
2:00 PM102 °FClear.13 mph45%29.47 "Hg6 mi
1:00 PM106 °FClear.8 mph40%29.47 "Hg6 mi
12:00 PM109 °FClear.5 mph27%29.47 "Hg6 mi
11:00 AM108 °FPassing clouds.6 mph30%29.47 "HgN/A
10:00 AM106 °FPassing clouds.7 mph32%29.50 "HgN/A
9:00 AM104 °FPassing clouds.6 mph40%29.50 "HgN/A
8:00 AM100 °FSunny.10 mph45%29.47 "Hg10 mi
7:00 AM97 °FSunny.8 mph60%29.47 "Hg10 mi
6:00 AM95 °FPassing clouds.6 mph67%29.47 "HgN/A
5:00 AM93 °FClear.6 mph80%29.45 "Hg5 mi
4:00 AM93 °FPassing clouds.3 mph80%29.45 "HgN/A
Weather by CustomWeather, © 2015

See weather overviewHow to use our weather pages